This is the latest recevied weather packets stored in our database for station/object F5ZQC-13. If no packets are shown the sender has not sent any weather packets the latest 10 day(s).
| Time | Temp. | Humidity | Pressure | Rain* | Wind** | Luminosity | Snow |
|---|---|---|---|---|---|---|---|
| 1778138714 | 20.56° C | 34% | 1011.3 hPa | 0 mm | - | - | - |
| 1778138592 | 20.56° C | 34% | 1011.3 hPa | 0 mm | - | - | - |
| 1778136984 | 20° C | 40% | 1011.4 hPa | 0 mm | - | - | - |
| 1778136861 | 20° C | 41% | 1011.4 hPa | 0 mm | - | - | - |
| 1778136739 | 19.44° C | 41% | 1011.4 hPa | 0 mm | - | - | - |
| 1778136617 | 19.44° C | 42% | 1011.3 hPa | 0 mm | - | - | - |
| 1778136312 | 18.89° C | 43% | 1011.3 hPa | 0 mm | - | - | - |
| 1778136191 | 18.89° C | 42% | 1011.3 hPa | 0 mm | - | - | - |
| 1778135840 | 18.33° C | 45% | 1011.4 hPa | 0 mm | - | - | - |
| 1778135718 | 17.78° C | 45% | 1011.1 hPa | 0 mm | - | - | - |
| 1778135599 | 17.78° C | 46% | 1011.4 hPa | 0 mm | - | - | - |
| 1778135477 | 17.22° C | 46% | 1011.1 hPa | 0 mm | - | - | - |
| 1778135233 | 17.22° C | 46% | 1011.2 hPa | 0 mm | - | - | - |
| 1778135110 | 16.67° C | 49% | 1011.4 hPa | 0 mm | - | - | - |
| 1778134989 | 16.67° C | 47% | 1011.4 hPa | 0 mm | - | - | - |
| 1778134403 | 15.56° C | 50% | 1011.2 hPa | 0 mm | - | - | - |
| 1778134036 | 15° C | 49% | 1011.1 hPa | 0 mm | - | - | - |
| 1778133973 | 14.44° C | 50% | 1011.1 hPa | 0 mm | - | - | - |
| 1778133740 | 14.44° C | 51% | 1011.4 hPa | 0 mm | - | - | - |
| 1778133618 | 13.89° C | 51% | 1011.3 hPa | 0 mm | - | - | - |
| 1778133217 | 13.33° C | 53% | 1011.3 hPa | 0 mm | - | - | - |
| 1778133096 | 12.78° C | 53% | 1011.4 hPa | 0 mm | - | - | - |
| 1778132973 | 12.78° C | 53% | 1011.2 hPa | 0 mm | - | - | - |
| 1778132606 | 12.22° C | 53% | 1011.3 hPa | 0 mm | - | - | - |
| 1778132361 | 11.67° C | 54% | 1011.3 hPa | 0 mm | - | - | - |
* Rain since midnight (hover to see other rain measurements)
** Current wind speed in m/s (hover to see current wind gust speed)